Total_Precipitation_Accumulation
0.04 0.03 0.02 0.02 0.03 0.08 0.12 0.12 0.14 0.12 0.11 0.08 0.06 0.05 0.03 0.02 0.03 0.03 0.02 0.01 0.01 0.01 0.01 0.01 0.00 0.00 0.00 0.00 0.00 0.00 0.00 0.00 0.00 0.00 0.00 0.00 0.00 0.00 0.00 0.00 0.00 0.00 0.00 0.00 0.00 0.00 0.00
0.04 0.02 0.03 0.03 0.04 0.07 0.14 0.18 0.17 0.20 0.16 0.11 0.08 0.06 0.06 0.04 0.03 0.04 0.04 0.03 0.02 0.02 0.02 0.04 0.05 0.04 0.00 0.00 0.00 0.00 0.00 0.00 0.00 0.00 0.00 0.00 0.00 0.00 0.00 0.00 0.00 0.00 0.00 0.00 0.00 0.00 0.00
0.03 0.03 0.03 0.03 0.04 0.04 0.08 0.18 0.22 0.25 0.29 0.29 0.23 0.17 0.12 0.11 0.08 0.06 0.05 0.03 0.04 0.08 0.10 0.12 0.13 0.07 0.01 0.00 0.00 0.00 0.00 0.00 0.00 0.00 0.00 0.00 0.00 0.00 0.00 0.00 0.00 0.00 0.00 0.00 0.00 0.00 0.00
0.03 0.03 0.03 0.03 0.03 0.04 0.04 0.10 0.20 0.24 0.31 0.28 0.28 0.24 0.24 0.19 0.17 0.15 0.10 0.08 0.08 0.08 0.14 0.26 0.31 0.17 0.06 0.00 0.00 0.00 0.00 0.00 0.00 0.00 0.00 0.00 0.00 0.00 0.00 0.00 0.00 0.00 0.00 0.00 0.00 0.00 0.00
0.04 0.04 0.05 0.05 0.04 0.04 0.04 0.07 0.16 0.28 0.30 0.35 0.37 0.40 0.27 0.26 0.22 0.20 0.19 0.15 0.14 0.20 0.29 0.30 0.40 0.29 0.06 0.00 0.00 0.00 0.00 0.00 0.00 0.00 0.00 0.00 0.00 0.00 0.00 0.00 0.00 0.00 0.00 0.00 0.00 0.00 0.00
0.06 0.07 0.07 0.07 0.08 0.06 0.05 0.04 0.07 0.16 0.29 0.36 0.40 0.43 0.49 0.39 0.33 0.29 0.28 0.32 0.33 0.47 0.59 0.64 0.46 0.19 0.02 0.00 0.00 0.00 0.00 0.00 0.00 0.00 0.00 0.00 0.00 0.00 0.00 0.00 0.00 0.00 0.00 0.00 0.00 0.00 0.00
0.08 0.08 0.09 0.08 0.09 0.10 0.11 0.13 0.16 0.18 0.22 0.31 0.40 0.39 0.43 0.49 0.56 0.57 0.63 0.85 0.94 0.88 0.68 0.33 0.17 0.05 0.00 0.00 0.00 0.00 0.00 0.00 0.00 0.00 0.00 0.00 0.00 0.00 0.00 0.00 0.00 0.00 0.00 0.00 0.00 0.00 0.00
0.07 0.08 0.09 0.10 0.09 0.10 0.11 0.16 0.19 0.18 0.18 0.23 0.36 0.49 0.51 0.57 0.73 0.95 1.00 0.97 0.58 0.31 0.32 0.09 0.01 0.00 0.00 0.00 0.00 0.00 0.00 0.00 0.00 0.00 0.00 0.00 0.00 0.00 0.00 0.00 0.00 0.00 0.00 0.00 0.00 0.00 0.00
0.06 0.09 0.10 0.08 0.08 0.10 0.16 0.19 0.21 0.16 0.13 0.19 0.33 0.43 0.56 0.70 1.00 1.39 1.39 0.80 0.31 0.26 0.40 0.20 0.05 0.01 0.00 0.00 0.00 0.00 0.00 0.00 0.00 0.00 0.00 0.00 0.00 0.00 0.00 0.00 0.00 0.00 0.00 0.00 0.00 0.00 0.00
0.08 0.08 0.07 0.08 0.14 0.16 0.14 0.13 0.16 0.09 0.09 0.16 0.25 0.39 0.41 0.72 1.60 1.57 1.43 0.58 0.42 0.62 0.90 0.38 0.06 0.03 0.01 0.00 0.01 0.00 0.00 0.00 0.00 0.00 0.00 0.00 0.00 0.00 0.00 0.00 0.00 0.00 0.00 0.00 0.00 0.00 0.00
0.09 0.12 0.17 0.20 0.19 0.14 0.09 0.06 0.08 0.09 0.09 0.12 0.20 0.32 0.42 0.77 1.12 1.17 0.88 0.44 0.82 1.65 1.93 0.39 0.02 0.00 0.00 0.01 0.01 0.00 0.00 0.00 0.00 0.00 0.00 0.00 0.00 0.00 0.00 0.00 0.00 0.00 0.00 0.00 0.00 0.00 0.00
0.19 0.18 0.23 0.26 0.17 0.14 0.13 0.11 0.09 0.08 0.09 0.14 0.13 0.15 0.36 0.69 1.00 0.63 0.35 0.68 1.88 3.58 2.51 0.24 0.01 0.01 0.01 0.00 0.00 0.00 0.00 0.00 0.00 0.00 0.00 0.00 0.00 0.00 0.00 0.00 0.00 0.00 0.00 0.00 0.00 0.00 0.00
0.08 0.11 0.18 0.17 0.20 0.28 0.21 0.18 0.13 0.10 0.13 0.11 0.10 0.14 0.27 0.49 0.79 0.65 0.78 1.78 3.57 3.81 1.51 0.24 0.03 0.01 0.01 0.01 0.00 0.00 0.01 0.01 0.03 0.06 0.07 0.00 0.00 0.00 0.00 0.00 0.00 0.00 0.00 0.02 0.03 0.01 0.00
0.08 0.09 0.09 0.11 0.16 0.17 0.16 0.16 0.14 0.13 0.14 0.15 0.17 0.22 0.29 0.41 0.43 0.90 1.72 2.97 3.34 2.05 0.80 0.16 0.05 0.05 0.05 0.03 0.01 0.01 0.01 0.02 0.03 0.01 0.01 0.00 0.00 0.00 0.00 0.00 0.00 0.00 0.00 0.02 0.05 0.01 0.00
0.11 0.09 0.05 0.04 0.06 0.06 0.13 0.17 0.13 0.14 0.17 0.16 0.19 0.17 0.29 0.34 0.59 1.17 2.46 3.58 2.63 1.03 0.25 0.07 0.05 0.19 0.20 0.10 0.05 0.05 0.03 0.03 0.02 0.03 0.02 0.00 0.00 0.00 0.00 0.00 0.00 0.00 0.00 0.00 0.02 0.06 0.09
0.14 0.10 0.08 0.06 0.06 0.08 0.07 0.10 0.20 0.23 0.22 0.31 0.24 0.19 0.18 0.19 0.62 1.44 2.43 2.66 1.63 0.48 0.10 0.06 0.17 0.17 0.17 0.17 0.25 0.23 0.19 0.06 0.01 0.00 0.02 0.01 0.02 0.00 0.00 0.00 0.00 0.00 0.00 0.02 0.14 0.24 0.12
0.12 0.10 0.08 0.07 0.06 0.04 0.03 0.04 0.14 0.28 0.23 0.42 0.38 0.32 0.14 0.19 0.66 1.78 2.19 1.70 0.91 0.23 0.17 0.21 0.14 0.25 0.16 0.19 0.43 0.48 0.35 0.16 0.07 0.02 0.01 0.04 0.10 0.03 0.01 0.00 0.00 0.00 0.00 0.00 0.04 0.04 0.04
0.06 0.07 0.07 0.06 0.06 0.05 0.05 0.05 0.08 0.23 0.45 0.63 0.55 0.49 0.25 0.24 0.76 1.43 1.54 1.06 0.46 0.09 0.14 0.35 0.27 0.18 0.19 0.20 0.27 0.39 0.45 0.31 0.25 0.12 0.06 0.05 0.20 0.13 0.01 0.00 0.00 0.01 0.00 0.01 0.08 0.10 0.05
0.09 0.08 0.07 0.09 0.11 0.10 0.09 0.09 0.16 0.24 0.53 0.60 0.63 0.31 0.27 0.64 0.78 0.83 0.84 0.79 0.34 0.06 0.09 0.48 0.41 0.20 0.18 0.15 0.49 0.27 0.15 0.19 0.25 0.36 0.35 0.24 0.44 0.43 0.26 0.15 0.05 0.05 0.02 0.01 0.02 0.04 0.03
0.14 0.13 0.14 0.15 0.13 0.14 0.17 0.20 0.22 0.31 0.57 0.84 0.74 0.48 0.33 0.52 0.47 0.47 0.58 0.63 0.46 0.13 0.04 0.21 0.29 0.13 0.22 0.35 0.36 0.35 0.16 0.11 0.04 0.14 0.22 0.46 0.31 0.28 0.19 0.10 0.04 0.03 0.02 0.02 0.07 0.16 0.07
0.13 0.12 0.14 0.14 0.14 0.14 0.18 0.24 0.28 0.45 0.78 1.32 1.46 0.58 0.20 0.34 0.33 0.34 0.44 0.45 0.29 0.23 0.17 0.09 0.22 0.20 0.19 0.44 0.51 0.29 0.10 0.03 0.02 0.04 0.13 0.47 0.56 0.24 0.11 0.04 0.03 0.01 0.01 0.01 0.06 0.05 0.17
0.10 0.11 0.11 0.09 0.11 0.09 0.09 0.20 0.33 0.47 1.11 1.73 1.25 0.45 0.24 0.12 0.16 0.26 0.33 0.37 0.16 0.11 0.21 0.15 0.18 0.13 0.16 0.26 0.26 0.38 0.26 0.13 0.11 0.08 0.25 0.57 0.79 0.26 0.25 0.14 0.13 0.11 0.03 0.04 0.03 0.01 0.03
0.06 0.08 0.09 0.09 0.09 0.07 0.17 0.26 0.35 0.49 1.09 1.60 0.67 0.27 0.45 0.36 0.16 0.22 0.27 0.27 0.12 0.08 0.07 0.06 0.06 0.09 0.13 0.14 0.13 0.19 0.27 0.39 0.33 0.22 0.26 0.56 0.98 0.79 0.68 0.29 0.34 0.56 0.15 0.02 0.02 0.00 0.01
0.08 0.07 0.08 0.10 0.12 0.18 0.31 0.40 0.44 0.51 0.84 0.91 0.39 0.21 0.69 0.62 0.16 0.11 0.08 0.10 0.07 0.07 0.07 0.06 0.06 0.09 0.13 0.16 0.26 0.43 0.62 0.74 0.76 0.78 0.49 0.65 0.78 1.28 1.24 0.60 0.98 0.75 0.06 0.00 0.00 0.00 0.00
0.06 0.06 0.10 0.14 0.22 0.26 0.38 0.48 0.60 0.73 0.75 0.93 0.71 0.36 0.49 0.53 0.13 0.03 0.03 0.04 0.03 0.03 0.05 0.03 0.02 0.08 0.16 0.25 0.67 1.22 1.36 1.25 1.20 1.01 0.96 0.82 0.74 1.27 1.16 0.90 0.68 0.13 0.00 0.00 0.01 0.01 0.00
0.04 0.06 0.13 0.09 0.08 0.15 0.31 0.44 0.56 0.85 0.85 0.99 0.93 0.49 0.57 0.88 0.28 0.05 0.03 0.02 0.07 0.14 0.26 0.16 0.09 0.19 0.31 0.74 1.16 1.27 0.98 0.73 0.64 0.72 0.61 0.69 0.89 1.20 1.45 0.97 0.57 0.05 0.00 0.00 0.04 0.24 0.01
0.05 0.06 0.02 0.02 0.04 0.13 0.32 0.46 0.57 0.80 0.76 1.10 1.05 0.50 0.77 1.15 0.25 0.06 0.11 0.05 0.04 0.11 0.35 0.34 0.46 0.66 0.64 1.11 1.35 1.13 0.74 0.33 0.27 0.25 0.51 0.71 0.89 1.11 1.01 0.79 0.29 0.00 0.00 0.01 0.22 0.24 0.00
0.04 0.02 0.02 0.01 0.03 0.10 0.30 0.40 0.48 0.51 0.63 0.90 1.22 0.46 1.25 1.49 0.51 0.05 0.04 0.05 0.07 0.20 0.44 0.38 0.54 0.74 0.86 0.89 0.90 0.80 0.64 0.37 0.22 0.12 0.16 0.42 0.72 0.83 0.74 0.63 0.24 0.01 0.01 0.06 0.06 0.01 0.01
0.01 0.01 0.01 0.01 0.03 0.08 0.23 0.35 0.39 0.41 0.59 0.62 1.11 0.72 1.33 2.05 1.29 0.14 0.05 0.03 0.03 0.11 0.19 0.38 0.43 0.33 0.38 0.52 0.44 0.42 0.31 0.23 0.18 0.22 0.11 0.14 0.33 0.62 0.68 0.47 0.11 0.01 0.02 0.06 0.11 0.12 0.10